FW3572 Weather Reports


time (UTC)temp
C
wind
direction
speed
KPH
gust
KPH
rain 1hr
cm
rain 24hr
cm
rain mn
cm
humidity
%
barometer
mb
20260510180502 29 170 8.0 20.9 0.00 0.28 0.00 100 1017.5
20260510180002 29 151 11.3 25.7 0.00 0.28 0.00 100 1017.6
20260510175504 29 120 8.0 25.7 0.00 0.28 0.00 100 1017.5
20260510175002 30 187 14.5 25.7 0.00 0.28 0.00 100 1017.6
20260510174502 30 118 3.2 24.1 0.00 0.28 0.00 100 1017.7
20260510174002 30 146 9.7 25.7 0.00 0.28 0.00 100 1017.7
20260510173502 30 93 6.4 17.7 0.00 0.28 0.00 100 1017.7
20260510173002 31 113 8.0 17.7 0.00 0.28 0.00 100 1017.9
20260510172503 31 172 4.8 14.5 0.00 0.28 0.00 100 1017.8
20260510172100 32 181 1.6 11.3 0.00 0.28 0.00 100 1017.8
20260510171607 31 234 4.8 11.3 0.00 0.28 0.00 100 1017.9
20260510171100 31 175 4.8 12.9 0.00 0.28 0.00 100 1017.9
20260510170656 31 227 0.0 14.5 0.00 0.28 0.00 100 1018.0
20260510170054 31 235 6.4 14.5 0.00 0.28 0.00 100 1018.1
20260510165553 32 219 3.2 11.3 0.00 0.28 0.00 100 1018.1
20260510165050 31 231 3.2 14.5 0.00 0.28 0.00 100 1018.1
20260510164550 32 164 3.2 17.7 0.00 0.28 0.00 100 1018.2
20260510164048 31 221 6.4 17.7 0.00 0.28 0.00 100 1018.2
20260510163548 31 169 6.4 16.1 0.00 0.28 0.00 100 1018.3
20260510163047 31 257 4.8 11.3 0.00 0.28 0.00 100 1018.3
20260510162543 31 234 3.2 11.3 0.00 0.28 0.00 100 1018.4
20260510162043 31 215 4.8 14.5 0.00 0.28 0.00 100 1018.3
20260510161540 31 239 3.2 12.9 0.00 0.28 0.00 100 1018.3
20260510161040 31 208 4.8 16.1 0.00 0.28 0.00 100 1018.3
20260510160537 31 259 4.8 16.1 0.00 0.28 0.00 100 1018.3
20260510160036 30 171 4.8 20.9 0.00 0.28 0.00 100 1018.4
20260510155534 31 242 4.8 20.9 0.00 0.28 0.00 100 1018.4
20260510155033 31 219 4.8 16.1 0.00 0.28 0.00 100 1018.5
20260510154538 30 269 3.2 12.9 0.00 0.28 0.00 100 1018.4
20260510154031 30 182 4.8 12.9 0.00 0.28 0.00 100 1018.5
20260510153529 30 177 6.4 12.9 0.00 0.28 0.00 100 1018.5
20260510153027 30 223 1.6 11.3 0.00 0.28 0.00 100 1018.6
20260510152526 30 201 4.8 16.1 0.00 0.28 0.00 100 1018.6
20260510152024 30 269 6.4 17.7 0.00 0.28 0.00 100 1018.4
20260510151524 30 270 9.7 17.7 0.00 0.28 0.00 100 1018.4
20260510151020 30 236 4.8 12.9 0.00 0.28 0.00 100 1018.3
20260510150519 30 221 4.8 17.7 0.00 0.28 0.00 100 1018.3
20260510150018 30 223 6.4 17.7 0.00 0.28 0.00 100 1018.2
20260510145515 29 244 4.8 12.9 0.00 0.28 0.00 100 1018.2
20260510145014 29 235 4.8 19.3 0.00 0.28 0.00 100 1018.3
20260510144513 29 222 4.8 19.3 0.00 0.28 0.00 100 1018.3
20260510144013 28 201 4.8 17.7 0.00 0.28 0.00 100 1018.3
20260510143512 28 211 4.8 17.7 0.00 0.28 0.00 100 1018.2
20260510143015 28 235 1.6 17.7 0.00 0.28 0.00 100 1018.2
20260510142512 28 242 6.4 19.3 0.00 0.28 0.00 100 1018.2
20260510142013 28 248 6.4 16.1 0.00 0.28 0.00 100 1018.1
20260510141509 28 229 4.8 14.5 0.00 0.28 0.00 100 1018.1
20260510141009 28 227 3.2 14.5 0.00 0.28 0.00 100 1018.0
20260510140507 28 197 3.2 12.9 0.00 0.28 0.00 100 1018.0
20260510140006 28 244 0.0 12.9 0.00 0.28 0.00 100 1018.0
20260510135505 27 246 3.2 14.5 0.00 0.28 0.00 100 1018.0
20260510135004 27 171 4.8 14.5 0.00 0.28 0.00 100 1018.2
20260510134504 27 207 3.2 11.3 0.00 0.28 0.00 100 1018.2
20260510134003 27 217 3.2 12.9 0.00 0.28 0.00 100 1018.3
20260510133502 27 230 6.4 12.9 0.00 0.28 0.00 100 1018.3
20260510133001 27 246 3.2 11.3 0.00 0.28 0.00 100 1018.2
20260510132600 27 209 1.6 14.5 0.00 0.28 0.00 100 1018.0
20260510132059 27 197 6.4 14.5 0.00 0.28 0.00 100 1018.1
20260510131558 27 207 3.2 12.9 0.00 0.28 0.00 100 1018.1
20260510131057 26 234 4.8 14.5 0.00 0.28 0.00 100 1017.9
20260510130557 26 215 3.2 8.0 0.00 0.28 0.00 100 1017.8
20260510130055 26 175 3.2 11.3 0.00 0.28 0.00 100 1017.8
20260510125553 25 195 4.8 11.3 0.00 0.28 0.00 100 1018.0
20260510125052 25 207 1.6 8.0 0.00 0.28 0.00 100 1017.9
20260510124556 25 228 1.6 11.3 0.00 0.28 0.00 100 1017.7
20260510124051 25 183 3.2 12.9 0.00 0.28 0.00 100 1017.6
20260510123551 24 171 4.8 12.9 0.00 0.28 0.00 100 1017.6
20260510123054 24 201 1.6 12.9 0.00 0.28 0.00 100 1017.6
20260510122550 24 190 1.6 9.7 0.00 0.28 0.00 100 1017.7
20260510122048 23 171 3.2 9.7 0.00 0.28 0.00 100 1017.5
20260510121548 23 182 1.6 8.0 0.00 0.28 0.00 100 1017.4
20260510121048 23 173 3.2 8.0 0.00 0.28 0.00 100 1017.4
20260510120548 23 190 0.0 0.0 0.00 0.28 0.00 100 1017.3
20260510120047 23 194 0.0 1.6 0.00 0.28 0.00 100 1017.3
20260510115546 23 194 0.0 1.6 0.00 0.28 0.00 100 1017.2
20260510115046 23 191 0.0 3.2 0.00 0.28 0.00 100 1017.1
20260510114545 23 191 0.0 3.2 0.00 0.28 0.00 100 1017.2
20260510114048 23 192 0.0 0.0 0.00 0.28 0.00 100 1016.9
20260510113545 23 192 0.0 0.0 0.00 0.28 0.00 100 1016.9
20260510113045 23 193 0.0 0.0 0.00 0.28 0.00 100 1016.9
20260510112544 23 217 0.0 0.0 0.00 0.28 0.00 100 1016.9
20260510112047 23 221 0.0 0.0 0.00 0.28 0.00 100 1016.8
20260510111554 23 225 0.0 0.0 0.00 0.28 0.00 100 1016.8
20260510111045 23 225 0.0 0.0 0.00 0.28 0.00 100 1016.7
20260510110542 23 229 0.0 0.0 0.00 0.28 0.00 100 1016.7
20260510110044 23 231 0.0 0.0 0.00 0.28 0.00 100 1016.6
20260510105544 23 231 0.0 0.0 0.00 0.28 0.00 100 1016.6
20260510105042 23 231 0.0 0.0 0.00 0.28 0.00 100 1016.6
20260510104601 23 229 0.0 0.0 0.00 0.28 0.00 100 1016.5
20260510104044 23 229 0.0 0.0 0.00 0.28 0.00 100 1016.5
20260510103541 23 229 0.0 0.0 0.00 0.28 0.00 100 1016.4
20260510103043 23 229 0.0 0.0 0.00 0.28 0.00 100 1016.3
20260510102540 23 229 0.0 0.0 0.00 0.28 0.00 100 1016.3
20260510102041 23 226 0.0 0.0 0.00 0.28 0.00 100 1016.1
20260510101540 23 225 0.0 0.0 0.00 0.28 0.00 100 1016.0
20260510101042 23 225 0.0 0.0 0.00 0.28 0.00 100 1015.8
20260510100542 23 225 0.0 0.0 0.00 0.28 0.00 100 1015.9
20260510100039 23 225 0.0 0.0 0.00 0.28 0.00 100 1015.8
20260510095543 23 225 0.0 0.0 0.00 0.28 0.00 100 1015.8
20260510095038 23 225 0.0 0.0 0.00 0.28 0.00 100 1015.7
20260510094541 23 225 0.0 0.0 0.00 0.28 0.00 100 1015.7
20260510094041 23 225 0.0 0.0 0.00 0.28 0.00 100 1015.6
20260510093537 23 225 0.0 0.0 0.00 0.28 0.00 100 1015.7
20260510093037 23 225 0.0 0.0 0.00 0.28 0.00 100 1015.6
20260510092537 23 225 0.0 0.0 0.00 0.28 0.00 100 1015.7
20260510092039 23 225 0.0 0.0 0.00 0.28 0.00 100 1015.8
20260510091536 23 225 0.0 0.0 0.00 0.28 0.00 100 1015.7
20260510091037 23 225 0.0 0.0 0.00 0.28 0.00 100 1015.7
20260510090536 23 225 0.0 0.0 0.00 0.28 0.00 100 1015.6
20260510090042 23 225 0.0 0.0 0.00 0.28 0.00 100 1015.6
20260510085533 23 225 0.0 0.0 0.00 0.28 0.00 100 1015.5
20260510085034 23 225 0.0 0.0 0.00 0.28 0.00 100 1015.5
20260510084534 23 225 0.0 0.0 0.00 0.28 0.00 100 1015.5
20260510084034 23 225 0.0 0.0 0.00 0.28 0.00 100 1015.5
20260510083533 23 225 0.0 4.8 0.00 0.28 0.00 100 1015.5
20260510083034 23 225 1.6 4.8 0.00 0.28 0.00 100 1015.4
20260510082532 23 288 0.0 0.0 0.00 0.28 0.00 100 1015.3
20260510082033 23 288 0.0 1.6 0.00 0.28 0.00 100 1015.4
20260510081531 23 288 0.0 1.6 0.00 0.28 0.00 100 1015.3
20260510081031 23 288 0.0 1.6 0.00 0.28 0.00 100 1015.3
20260510080534 23 288 0.0 0.0 0.00 0.28 0.00 100 1015.3
20260510080033 23 288 0.0 0.0 0.00 0.28 0.00 100 1015.3
20260510075531 23 288 0.0 0.0 0.00 0.28 0.00 100 1015.3
20260510075031 23 288 0.0 0.0 0.00 0.28 0.00 100 1015.2
20260510074534 23 288 0.0 0.0 0.00 0.28 0.00 100 1015.2
20260510074029 23 288 0.0 0.0 0.00 0.28 0.00 100 1015.3
20260510073534 23 288 0.0 0.0 0.00 0.28 0.00 100 1015.3
20260510073031 23 288 0.0 1.6 0.00 0.28 0.00 100 1015.4
20260510072529 23 288 0.0 3.2 0.00 0.28 0.00 100 1015.3
20260510072029 23 288 0.0 1.6 0.00 0.28 0.00 100 1015.3
20260510071527 23 287 0.0 0.0 0.00 0.28 0.00 100 1015.3
20260510071027 23 286 0.0 3.2 0.00 0.28 0.00 100 1015.3
20260510070530 23 286 0.0 6.4 0.00 0.28 0.00 100 1015.3
20260510070027 23 302 0.0 6.4 0.00 0.28 0.00 100 1015.3
20260510065529 23 304 0.0 8.0 0.00 0.28 0.00 100 1015.4
20260510065027 23 279 1.6 8.0 0.00 0.28 0.00 100 1015.4
20260510064528 23 321 1.6 6.4 0.00 0.28 0.00 100 1015.4
20260510064024 23 292 0.0 4.8 0.00 0.28 0.00 100 1015.5
20260510063524 23 274 0.0 4.8 0.00 0.28 0.00 100 1015.6
20260510063027 23 275 0.0 4.8 0.00 0.28 0.00 100 1015.6
20260510062523 23 277 0.0 4.8 0.00 0.28 0.00 100 1015.7
20260510062025 23 248 0.0 6.4 0.00 0.28 0.00 100 1015.7
20260510061529 23 242 1.6 8.0 0.00 0.28 0.00 100 1015.7
20260510061022 23 242 1.6 6.4 0.00 0.28 0.00 100 1015.8
20260510060522 23 243 0.0 0.0 0.00 0.28 0.00 100 1015.7
20260510060041 23 243 0.0 0.0 0.00 0.28 0.00 100 1015.7
20260510055521 23 243 0.0 0.0 0.00 0.28 0.00 100 1015.6
20260510055020 23 243 0.0 0.0 0.00 0.28 0.00 100 1015.7
20260510054521 24 228 0.0 0.0 0.00 0.28 0.00 100 1015.8
20260510054019 24 227 0.0 1.6 0.00 0.28 0.00 100 1015.9
20260510053519 24 227 0.0 1.6 0.00 0.28 0.00 100 1015.9
20260510053018 24 227 0.0 0.0 0.00 0.28 0.00 100 1016.1
20260510052518 24 200 0.0 0.0 0.00 0.28 0.00 100 1016.1
20260510052018 24 197 0.0 0.0 0.00 0.28 0.00 100 1016.1
20260510051518 24 192 0.0 0.0 0.00 0.28 0.00 100 1016.2
20260510051017 24 191 0.0 0.0 0.00 0.28 0.00 100 1016.1
20260510050517 24 190 0.0 0.0 0.00 0.28 0.00 100 1016.3
20260510050023 24 190 0.0 0.0 0.00 0.28 0.00 100 1016.3
20260510045519 24 190 0.0 0.0 0.00 0.28 0.00 100 1016.3
20260510045016 24 190 0.0 0.0 0.00 0.28 0.00 100 1016.3
20260510044517 24 190 0.0 0.0 0.00 0.28 0.00 100 1016.2
20260510044019 24 190 0.0 0.0 0.00 0.28 0.00 100 1016.2
20260510043517 24 190 0.0 0.0 0.00 0.28 0.00 100 1016.2
20260510043014 24 190 0.0 0.0 0.00 0.28 0.00 100 1016.3
20260510042514 25 190 0.0 0.0 0.00 0.28 0.00 100 1016.4
20260510042014 25 190 0.0 0.0 0.00 0.28 0.00 100 1016.5
20260510041516 24 190 0.0 0.0 0.00 0.28 0.00 100 1016.4
20260510041012 25 190 0.0 0.0 0.00 0.28 0.00 100 1016.5
20260510040511 25 190 0.0 0.0 0.00 0.28 0.00 100 1016.5
20260510040010 25 190 0.0 0.0 0.00 0.28 0.00 100 1016.5
20260510035510 25 190 0.0 0.0 0.00 0.28 0.00 100 1016.5
20260510035007 25 190 0.0 3.2 0.00 0.28 0.00 100 1016.6
20260510034507 25 190 0.0 4.8 0.00 0.28 0.28 100 1016.6
20260510034007 25 166 0.0 3.2 0.00 0.28 0.28 100 1016.5
20260510033506 25 155 0.0 0.0 0.00 0.28 0.28 100 1016.4
20260510033005 24 155 0.0 0.0 0.00 0.28 0.28 100 1016.4
20260510032506 24 155 0.0 0.0 0.00 0.28 0.28 100 1016.3
20260510032005 24 155 0.0 9.7 0.00 0.28 0.28 100 1016.2
20260510031505 24 155 3.2 9.7 0.00 0.28 0.28 100 1016.3
20260510031003 24 190 1.6 4.8 0.00 0.28 0.28 100 1016.2
20260510030503 25 311 0.0 1.6 0.00 0.28 0.28 100 1016.1
20260510030103 25 310 0.0 3.2 0.00 0.28 0.28 100 1016.0
20260510025504 25 310 0.0 1.6 0.00 0.28 0.28 100 1015.9
20260510025005 25 310 0.0 4.8 0.00 0.28 0.28 100 1016.0
20260510024504 25 311 0.0 4.8 0.00 0.28 0.28 100 1015.8
20260510024004 25 312 0.0 4.8 0.00 0.28 0.28 100 1015.8
20260510023502 25 348 1.6 6.4 0.03 0.28 0.28 100 1015.8
20260510023002 24 337 3.2 6.4 0.05 0.28 0.28 100 1015.8
20260510022504 25 348 0.0 6.4 0.28 0.28 0.28 100 1015.7
20260510022002 24 351 1.6 6.4 0.28 0.28 0.28 100 1015.5
20260510021502 24 12 0.0 6.4 0.28 0.28 0.28 100 1015.5
20260510021001 24 355 1.6 8.0 0.28 0.28 0.28 100 1015.4
20260510020502 24 342 1.6 8.0 0.28 0.28 0.28 100 1015.4
20260510020002 24 350 0.0 9.7 0.28 0.28 0.28 100 1015.3
20260510015502 24 348 3.2 9.7 0.28 0.28 0.28 100 1015.3
20260510015003 25 346 3.2 9.7 0.28 0.28 0.28 100 1015.4
20260510014501 25 330 0.0 14.5 0.28 0.28 0.28 100 1015.4
20260510014001 25 343 6.4 14.5 0.28 0.28 0.28 100 1015.3
20260510013501 25 24 3.2 19.3 0.25 0.25 0.25 100 1015.3
20260510013010 26 309 3.2 19.3 0.20 0.20 0.20 100 1015.5
20260510012500 28 325 8.0 17.7 0.00 0.00 0.00 100 1015.5
20260510012101 28 316 8.0 16.1 0.00 0.00 0.00 100 1015.1
20260510011625 28 355 1.6 14.5 0.00 0.00 0.00 100 1014.8
20260510011100 28 26 3.2 11.3 0.00 0.00 0.00 100 1014.6
20260510010600 28 291 1.6 9.7 0.00 0.00 0.00 100 1014.6
20260510010110 28 332 1.6 9.7 0.00 0.00 0.00 100 1014.6
20260510005601 28 316 3.2 20.9 0.00 0.00 0.00 100 1014.3
20260510005059 28 160 9.7 20.9 0.00 0.00 0.00 100 1014.0
20260510004600 27 153 6.4 22.5 0.00 0.00 0.00 100 1013.5
20260510004059 27 154 8.0 22.5 0.00 0.00 0.00 100 1013.4
20260510003601 27 137 9.7 19.3 0.00 0.00 0.00 100 1013.2
20260510003107 27 155 6.4 22.5 0.00 0.00 0.00 100 1013.2
20260510002558 27 165 11.3 24.1 0.00 0.00 0.00 100 1013.2
20260510002502 27 173 11.3 24.1 0.00 0.00 0.00 100 1013.2
20260510002058 27 188 11.3 19.3 0.00 0.00 0.00 100 1013.2
20260510001558 27 129 11.3 22.5 0.00 0.00 0.00 100 1013.1
20260510001057 28 148 6.4 22.5 0.00 0.00 0.00 100 1013.1
20260510000556 28 167 11.3 17.7 0.00 0.00 0.00 100 1013.1
20260510000059 28 184 8.0 24.1 0.00 0.00 0.00 100 1013.0
20260509235557 28 147 9.7 24.1 0.00 0.00 0.00 100 1012.9
20260509235057 28 155 8.0 20.9 0.00 0.00 0.00 100 1013.0
20260509234606 28 159 8.0 22.5 0.00 0.00 0.00 100 1012.9
20260509234056 28 174 8.0 22.5 0.00 0.00 0.00 100 1013.0
20260509233556 28 173 8.0 27.4 0.00 0.00 0.00 100 1012.9
20260509233103 28 138 11.3 30.6 0.00 0.00 0.00 100 1012.8
20260509232558 28 167 12.9 30.6 0.00 0.00 0.00 100 1012.7
20260509232056 28 150 12.9 27.4 0.00 0.00 0.00 100 1012.7
20260509231603 28 142 9.7 24.1 0.00 0.00 0.00 100 1012.8
20260509231055 28 141 11.3 24.1 0.00 0.00 0.00 100 1012.7
20260509230555 28 144 8.0 30.6 0.00 0.00 0.00 100 1012.8
20260509230057 28 150 16.1 29.0 0.00 0.00 0.00 100 1012.7
20260509225554 28 213 14.5 29.0 0.00 0.00 0.00 100 1012.9
20260509225502 28 162 14.5 29.0 0.00 0.00 0.00 100 1012.9
20260509225059 28 176 9.7 25.7 0.00 0.00 0.00 100 1012.8
20260509224604 28 169 17.7 30.6 0.00 0.00 0.00 100 1012.7
20260509224057 28 171 9.7 32.2 0.00 0.00 0.00 100 1012.7
20260509223554 28 159 11.3 32.2 0.00 0.00 0.00 100 1012.7
20260509223055 28 134 16.1 32.2 0.00 0.00 0.00 100 1012.7
20260509222556 28 163 12.9 35.4 0.00 0.00 0.00 100 1012.7
20260509222054 28 151 14.5 35.4 0.00 0.00 0.00 100 1012.7
20260509221553 29 157 14.5 30.6 0.00 0.00 0.00 100 1012.7
20260509221053 29 155 16.1 30.6 0.00 0.00 0.00 100 1012.8
20260509220552 29 155 12.9 27.4 0.00 0.00 0.00 100 1012.9
20260509220053 29 186 9.7 35.4 0.00 0.00 0.00 100 1012.8
20260509215552 29 118 14.5 35.4 0.00 0.00 0.00 100 1012.8
20260509214551 29 115 19.3 35.4 0.00 0.00 0.00 100 1012.8
20260509214051 28 134 17.7 35.4 0.00 0.00 0.00 100 1012.8
20260509213551 29 154 14.5 27.4 0.00 0.00 0.00 100 1012.8
20260509213102 29 138 17.7 27.4 0.00 0.00 0.00 100 1012.9
20260509212550 29 165 9.7 29.0 0.00 0.00 0.00 100 1012.8
20260509212050 29 168 16.1 33.8 0.00 0.00 0.00 100 1012.8
20260509211611 29 159 14.5 33.8 0.00 0.00 0.00 100 1012.8
20260509211051 29 148 11.3 30.6 0.00 0.00 0.00 100 1012.9
20260509210549 29 149 19.3 30.6 0.00 0.00 0.00 100 1012.8
20260509210056 28 161 14.5 35.4 0.00 0.00 0.00 100 1012.9
20260509205550 29 163 17.7 35.4 0.00 0.00 0.00 100 1012.9
20260509205048 28 133 17.7 32.2 0.00 0.00 0.00 100 1013.0
20260509204559 29 171 19.3 32.2 0.00 0.00 0.00 100 1012.9
20260509204048 30 123 9.7 20.9 0.00 0.00 0.00 100 1013.0
20260509203547 30 180 9.7 29.0 0.00 0.00 0.00 100 1012.9
20260509203057 29 140 14.5 29.0 0.00 0.00 0.00 100 1012.9
20260509202548 29 174 14.5 27.4 0.00 0.00 0.00 100 1013.0
20260509202047 29 140 16.1 27.4 0.00 0.00 0.00 100 1013.1
20260509201544 30 119 11.3 24.1 0.00 0.00 0.00 100 1013.0
20260509201044 30 127 11.3 22.5 0.00 0.00 0.00 100 1013.1
20260509200544 30 126 11.3 22.5 0.00 0.00 0.00 100 1013.2
20260509200044 30 130 8.0 25.7 0.00 0.00 0.00 100 1013.2
20260509195543 29 147 14.5 29.0 0.00 0.00 0.00 100 1013.2
20260509195043 29 156 14.5 29.0 0.00 0.00 0.00 100 1013.2
20260509194545 29 224 12.9 22.5 0.00 0.00 0.00 100 1013.4
20260509194043 29 182 12.9 24.1 0.00 0.00 0.00 100 1013.3
20260509193543 30 185 9.7 30.6 0.00 0.00 0.00 100 1013.4
20260509193054 29 182 16.1 32.2 0.00 0.00 0.00 100 1013.4
20260509192542 29 134 16.1 32.2 0.00 0.00 0.00 100 1013.5
20260509192040 29 136 14.5 30.6 0.00 0.00 0.00 100 1013.5
20260509191540 30 142 16.1 25.7 0.00 0.00 0.00 100 1013.7
20260509191039 30 150 11.3 22.5 0.00 0.00 0.00 100 1013.8
20260509190541 30 128 11.3 27.4 0.00 0.00 0.00 100 1013.7
20260509190046 30 138 9.7 27.4 0.00 0.00 0.00 100 1013.8
20260509185538 30 151 8.0 30.6 0.00 0.00 0.00 100 1013.9
20260509185037 30 120 14.5 30.6 0.00 0.00 0.00 100 1013.9
20260509184537 30 146 16.1 27.4 0.00 0.00 0.00 100 1014.0
20260509184037 30 130 9.7 29.0 0.00 0.00 0.00 100 1014.0
20260509183607 29 146 11.3 30.6 0.00 0.00 0.00 100 1013.9
20260509183038 29 169 14.5 29.0 0.00 0.00 0.00 100 1013.9
20260509182536 29 138 11.3 24.1 0.00 0.00 0.00 100 1014.0
20260509182036 30 146 12.9 29.0 0.00 0.00 0.00 100 1014.0
20260509181535 29 147 14.5 29.0 0.00 0.00 0.00 100 1014.1
20260509181035 29 127 12.9 27.4 0.00 0.00 0.00 100 1014.1